Weather History for Pickens County Airport, SC

Change the Weather History Date:

Saturday, January 4, 2014

  Actual Average Record
Temperature  
Mean Temperature 25 °F -  
Max Temperature 36 °F 52 °F 60 °F (2015)
Min Temperature 15 °F 33 °F 15 °F (2014)
Degree Days  
Heating Degree Days 40    
Moisture  
Dew Point 16 °F    
Average Humidity 66    
Maximum Humidity 100    
Minimum Humidity 40    
Precipitation  
Precipitation 0.00 in - - ()
Sea Level Pressure  
Sea Level Pressure 30.36 in    
Wind  
Wind Speed - (North)    
Max Wind Speed -    
Max Gust Speed -    
Visibility 10 miles    
Events      
Averages and records for this station are not official NWS values.
T = Trace of Precipitation, MM = Missing Value Source: NWS Daily Summary

Daily Weather History Graph

Daily Weather History Graph

Search for Another Location

Airport:

Trip Planner

Search our weather history database for the weather conditions in past years. The results will help you decide how hot, cold, wet, or windy it might be!

Date:

Astronomy

Jan. 04, 2014 Rise Set
Actual Time 7:38 AM EST 5:33 PM EST
Civil Twilight 7:10 AM EST 6:00 PM EST
Nautical Twilight 6:39 AM EST 6:32 PM EST
Astronomical Twilight 6:08 AM EST 7:03 PM EST
Moon 9:53 AM EST (1/4) 9:40 PM EST (1/4)
Length of Visible Light 10h 50m
Length of Day
9h 54m
Waxing Crescent, 15% of the Moon is Illuminated
Jan 4
Waxing Crescent
Jan 7
First Quarter
Jan 15
Full
Jan 24
Last Quarter
Jan 30
New

Hourly Weather History & Observations

Time (EST) Temp. Dew Point Humidity Pressure Visibility Wind Dir Wind Speed Gust Speed Precip Events Conditions
12:15 AM 19.9 °F 19.4 °F 98% 30.39 in 10.0 mi North - - N/A   Clear
12:35 AM 19.4 °F 18.0 °F 94% 30.40 in 10.0 mi North - - N/A   Clear
12:55 AM 19.2 °F 17.6 °F 93% 30.40 in 10.0 mi North - - N/A   Clear
1:15 AM 18.9 °F 17.8 °F 96% 30.40 in 10.0 mi North - - N/A   Clear
1:35 AM 18.9 °F 18.5 °F 98% 30.40 in 10.0 mi North - - N/A   Clear
1:55 AM 18.3 °F 18.1 °F 99% 30.40 in 10.0 mi North - - N/A   Clear
2:15 AM 17.6 °F 17.2 °F 98% 30.41 in 10.0 mi North - - N/A   Clear
2:35 AM 17.8 °F 17.4 °F 98% 30.41 in 10.0 mi North - - N/A   Clear
2:55 AM 17.6 °F 17.2 °F 98% 30.41 in 10.0 mi North - - N/A   Clear
3:15 AM 17.1 °F 16.9 °F 99% 30.41 in 10.0 mi North - - N/A   Clear
3:35 AM 17.4 °F 17.4 °F 100% 30.42 in 10.0 mi North - - N/A   Clear
3:55 AM 17.4 °F 17.6 °F 100% 30.42 in 10.0 mi North - - N/A   Clear
4:15 AM 16.9 °F 17.1 °F 100% 30.42 in 10.0 mi North - - N/A   Clear
4:35 AM 17.1 °F 16.7 °F 98% 30.42 in 10.0 mi North - - N/A   Clear
4:55 AM 16.5 °F 15.8 °F 97% 30.42 in 10.0 mi North - - N/A   Clear
5:15 AM 16.5 °F 15.6 °F 96% 30.41 in 10.0 mi North - - N/A   Clear
5:35 AM 16.2 °F 15.6 °F 98% 30.41 in 10.0 mi North - - N/A   Clear
5:55 AM 16.3 °F 16.0 °F 98% 30.42 in 10.0 mi North - - N/A   Clear
6:15 AM 16.2 °F 15.3 °F 96% 30.41 in 10.0 mi North - - N/A   Clear
6:35 AM 15.6 °F 14.7 °F 96% 30.40 in 10.0 mi North - - N/A   Clear
6:55 AM 16.5 °F 14.7 °F 93% 30.40 in 10.0 mi North - - N/A   Clear
7:15 AM 16.2 °F 14.5 °F 93% 30.40 in 10.0 mi North - - N/A   Clear
7:35 AM 16.3 °F 14.5 °F 93% 30.40 in 10.0 mi North - - N/A   Clear
7:55 AM 16.9 °F 15.4 °F 94% 30.41 in 10.0 mi North - - N/A   Clear
8:15 AM 16.5 °F 16.0 °F 98% 30.41 in 10.0 mi North - - N/A   Clear
8:35 AM 19.8 °F 18.0 °F 93% 30.42 in 10.0 mi North - - N/A   Clear
8:55 AM 24.6 °F 17.1 °F 73% 30.42 in 10.0 mi North - - N/A   Clear
9:15 AM 24.8 °F 18.5 °F 77% 30.42 in 10.0 mi North - - N/A   Scattered Clouds
9:35 AM 26.6 °F 17.6 °F 69% 30.43 in 10.0 mi North - - N/A   Overcast
9:55 AM 28.4 °F 15.3 °F 58% 30.44 in 10.0 mi North - - N/A   Overcast
10:15 AM 29.3 °F 16.5 °F 59% 30.45 in 10.0 mi North - - N/A   Overcast
10:35 AM 30.0 °F 14.7 °F 53% 30.45 in 10.0 mi North - - N/A   Overcast
10:55 AM 30.2 °F 12.0 °F 47% 30.44 in 10.0 mi North - - N/A   Overcast
11:15 AM 30.7 °F 11.1 °F 44% 30.42 in 10.0 mi North - - N/A   Overcast
11:35 AM 31.1 °F 10.8 °F 43% 30.41 in 10.0 mi North - - N/A   Overcast
11:55 AM 31.8 °F 10.9 °F 42% 30.40 in 10.0 mi North - - N/A   Overcast
12:15 PM 32.4 °F 11.1 °F 41% 30.38 in 10.0 mi North - - N/A   Overcast
12:35 PM 32.7 °F 10.9 °F 40% 30.37 in 10.0 mi North - - N/A   Overcast
12:55 PM 32.5 °F 11.7 °F 42% 30.36 in 10.0 mi North - - N/A   Overcast
1:15 PM 33.1 °F 11.7 °F 41% 30.35 in 10.0 mi North - - N/A   Overcast
1:35 PM 33.8 °F 11.7 °F 40% 30.35 in 10.0 mi North - - N/A   Overcast
1:55 PM 33.8 °F 11.8 °F 40% 30.34 in 10.0 mi North - - N/A   Overcast
2:15 PM 34.5 °F 13.1 °F 41% 30.33 in 10.0 mi North - - N/A   Overcast
2:35 PM 34.5 °F 12.9 °F 41% 30.32 in 10.0 mi North - - N/A   Overcast
2:55 PM 34.9 °F 13.6 °F 42% 30.32 in 10.0 mi North - - N/A   Overcast
3:15 PM 35.1 °F 12.9 °F 40% 30.32 in 10.0 mi North - - N/A   Overcast
3:35 PM 35.2 °F 13.6 °F 41% 30.31 in 10.0 mi North - - N/A   Overcast
3:55 PM 35.6 °F 13.8 °F 41% 30.31 in 10.0 mi North - - N/A   Overcast
4:15 PM 35.6 °F 13.8 °F 41% 30.32 in 10.0 mi North - - N/A   Overcast
4:35 PM 35.6 °F 14.2 °F 42% 30.31 in 10.0 mi North - - N/A   Overcast
4:55 PM 35.6 °F 14.7 °F 42% 30.31 in 10.0 mi North - - N/A   Overcast
5:15 PM 35.6 °F 14.9 °F 43% 30.31 in 10.0 mi North - - N/A   Overcast
5:35 PM 35.2 °F 15.6 °F 45% 30.31 in 10.0 mi North - - N/A   Overcast
5:55 PM 34.9 °F 15.3 °F 45% 30.31 in 10.0 mi North - - N/A   Overcast
6:15 PM 34.7 °F 15.3 °F 45% 30.32 in 10.0 mi North - - N/A   Overcast
6:35 PM 34.9 °F 15.6 °F 45% 30.31 in 10.0 mi North - - N/A   Overcast
6:55 PM 34.9 °F 15.3 °F 45% 30.31 in 10.0 mi North - - N/A   Overcast
7:15 PM 34.9 °F 15.4 °F 45% 30.30 in 10.0 mi North - - N/A   Overcast
7:35 PM 34.9 °F 16.0 °F 46% 30.29 in 10.0 mi North - - N/A   Overcast
7:55 PM 34.9 °F 17.4 °F 49% 30.29 in 10.0 mi North - - N/A   Overcast
8:15 PM 35.1 °F 17.8 °F 49% 30.30 in 10.0 mi North - - N/A   Overcast
8:35 PM 34.9 °F 18.3 °F 51% 30.29 in 10.0 mi North - - N/A   Overcast
8:55 PM 35.1 °F 18.5 °F 51% 30.27 in 10.0 mi North - - N/A   Overcast
9:15 PM 34.9 °F 18.7 °F 52% 30.28 in 10.0 mi North - - N/A   Overcast
9:35 PM 35.1 °F 18.5 °F 51% 30.27 in 10.0 mi North - - N/A   Overcast
9:55 PM 35.1 °F 18.9 °F 52% 30.27 in 10.0 mi North - - N/A   Overcast
10:15 PM 34.9 °F 19.2 °F 53% 30.27 in 10.0 mi North - - N/A   Overcast
10:35 PM 34.9 °F 19.2 °F 53% 30.26 in 10.0 mi North - - N/A   Overcast
10:55 PM 34.9 °F 19.8 °F 54% 30.25 in 10.0 mi North - - N/A   Overcast
11:15 PM 34.9 °F 19.4 °F 53% 30.24 in 10.0 mi North - - N/A   Overcast
11:35 PM 34.9 °F 19.6 °F 54% 30.23 in 10.0 mi North - - N/A   Overcast
11:55 PM 34.9 °F 20.7 °F 56% 30.23 in 10.0 mi North - - N/A   Overcast